,,PA_Meas_PMT16A,,PR_Meas_QMR101_102,,RH_Meas_QMH101,,SR_Meas_QMS101,,TA_Meas_QMH101,,GenWind,,GenWind,
time,status,PA,status,PR,status,RH,status,SR,status,TA,status,DirAvg,status,SpdAvg,
2014-09-22, 06:51:04,INVALID - VALUE NOT AVAILABLE,0,INVALID - VALUE NOT AVAILABLE,0,INVALID - VALUE NOT AVAILABLE,0,INVALID - VALUE NOT AVAILABLE,0,INVALID - VALUE NOT AVAILABLE,0,INVALID,360,INVALID,0,
2014-09-22, 06:52:04,VALID,918.205,VALID,0,VALID,95.773,VALID,55.6545,VALID,18.416,VALID,155,VALID,0.167969,
2014-09-22, 06:53:04,VALID,918.186,VALID,0,VALID,95.834,VALID,58.3405,VALID,18.4174,VALID,161,VALID,0.604297,
2014-09-22, 06:54:04,VALID,918.175,VALID,0,VALID,95.9102,VALID,60.3819,VALID,18.4578,VALID,147,VALID,0.305078,
2014-09-22, 06:55:04,VALID,918.18,VALID,0,VALID,95.9254,VALID,62.7456,VALID,18.4564,VALID,145,VALID,0.420312,
2014-09-22, 06:56:04,VALID,918.163,VALID,0,VALID,95.9331,VALID,65.4317,VALID,18.4759,VALID,165,VALID,1.33906,
2014-09-22, 06:57:04,VALID,918.16,VALID,0,VALID,95.9331,VALID,69.6219,VALID,18.4954,VALID,162,VALID,0.167578,
2014-09-22, 06:58:04,VALID,918.18,VALID,0,VALID,95.9407,VALID,74.8865,VALID,18.4954,VALID,143,VALID,0.946875,
2014-09-22, 06:59:04,VALID,918.201,VALID,0,VALID,95.9331,VALID,80.0437,VALID,18.5344,VALID,150,VALID,2.08633,
2014-09-22, 07:00:04,VALID,918.189,VALID,0,VALID,95.9254,VALID,84.019,VALID,18.5929,VALID,135,VALID,0.708203,
2014-09-22, 07:01:04,VALID,918.212,VALID,0,VALID,95.8645,VALID,89.0687,VALID,18.6319,VALID,137,VALID,1.07617,
2014-09-22, 07:02:04,VALID,918.21,VALID,0,VALID,95.7882,VALID,93.6887,VALID,18.6903,VALID,153,VALID,1.01406,
2014-09-22, 07:03:04,VALID,918.263,VALID,0,VALID,95.6815,VALID,97.9863,VALID,18.7293,VALID,131,VALID,0.963672,
2014-09-22, 07:04:04,VALID,918.263,VALID,0,VALID,95.529,VALID,101.747,VALID,18.8073,VALID,151,VALID,0.782812,
2014-09-22, 07:05:04,VALID,918.286,VALID,0,VALID,95.3003,VALID,105.722,VALID,18.8463,VALID,140,VALID,1.87695,
2014-09-22, 07:06:04,VALID,918.274,VALID,0,VALID,95.0183,VALID,109.697,VALID,18.8853,VALID,166,VALID,1.12227,
2014-09-22, 07:07:04,VALID,918.321,VALID,0,VALID,94.2102,VALID,113.243,VALID,18.9243,VALID,152,VALID,0.762891,
2014-09-22, 07:08:04,VALID,918.374,VALID,0,VALID,93.6842,VALID,117.756,VALID,18.9633,VALID,158,VALID,1.80625,
2014-09-22, 07:09:04,VALID,918.367,VALID,0,VALID,93.2039,VALID,121.623,VALID,19.0608,VALID,161,VALID,0.575781,
2014-09-22, 07:10:04,VALID,918.333,VALID,0,VALID,92.716,VALID,126.566,VALID,19.1193,VALID,141,VALID,1.54492,
2014-09-22, 07:11:04,VALID,918.364,VALID,0,VALID,92.4187,VALID,129.789,VALID,19.1778,VALID,134,VALID,0.175781,
2014-09-22, 07:12:04,VALID,918.362,VALID,0,VALID,91.9689,VALID,132.475,VALID,19.2558,VALID,142,VALID,1.71758,
2014-09-22, 07:13:04,VALID,918.398,VALID,0,VALID,91.4962,VALID,137.31,VALID,19.3338,VALID,164,VALID,1.37109,
2014-09-22, 07:14:04,VALID,918.424,VALID,0,VALID,91.3057,VALID,139.781,VALID,19.3713,VALID,123,VALID,1.51055,
2014-09-22, 07:15:04,VALID,918.416,VALID,0,VALID,90.8864,VALID,141.715,VALID,19.4298,VALID,144,VALID,1.32617,
2014-09-22, 07:16:04,VALID,918.442,VALID,0,VALID,90.3985,VALID,146.55,VALID,19.5093,VALID,128,VALID,2.78164,
2014-09-22, 07:17:04,VALID,918.462,VALID,0,VALID,90.1545,VALID,148.591,VALID,19.5468,VALID,147,VALID,1.76133,
2014-09-22, 07:18:04,VALID,918.454,VALID,0,VALID,90.0402,VALID,150.203,VALID,19.6053,VALID,160,VALID,1.16484,
2014-09-22, 07:19:04,VALID,918.459,VALID,0,VALID,89.6666,VALID,150.418,VALID,19.6833,VALID,175,VALID,1.09687,
2014-09-22, 07:20:04,VALID,918.448,VALID,0,VALID,89.3922,VALID,150.418,VALID,19.7418,VALID,158,VALID,0.0195313,
2014-09-22, 07:21:04,VALID,918.476,VALID,0,VALID,89.3998,VALID,150.31,VALID,19.8003,VALID,129,VALID,1.12852,
2014-09-22, 07:22:04,VALID,918.492,VALID,0,VALID,88.95,VALID,145.905,VALID,19.8798,VALID,155,VALID,0.142578,
2014-09-22, 07:23:04,VALID,918.488,VALID,0,VALID,88.9043,VALID,143.434,VALID,19.9173,VALID,143,VALID,0,
2014-09-22, 07:24:04,VALID,918.522,VALID,0,VALID,88.302,VALID,146.227,VALID,19.9563,VALID,164,VALID,0.640234,
2014-09-22, 07:25:04,VALID,918.511,VALID,0,VALID,88.6375,VALID,149.128,VALID,20.0148,VALID,145,VALID,0,
2014-09-22, 07:26:04,VALID,918.505,VALID,0,VALID,88.0276,VALID,151.492,VALID,20.0733,VALID,161,VALID,0.00703125,
2014-09-22, 07:27:04,VALID,918.516,VALID,0,VALID,88.1877,VALID,158.691,VALID,20.1123,VALID,163,VALID,0.00429688,
2014-09-22, 07:28:04,VALID,918.483,VALID,0,VALID,88.2029,VALID,167.178,VALID,20.1708,VALID,134,VALID,0,
2014-09-22, 07:29:04,VALID,918.492,VALID,0,VALID,88.0886,VALID,177.17,VALID,20.2293,VALID,108,VALID,0.857031,
2014-09-22, 07:30:04,VALID,918.535,VALID,0,VALID,87.7836,VALID,185.336,VALID,20.2879,VALID,116,VALID,0.357031,
2014-09-22, 07:31:04,VALID,918.504,VALID,0,VALID,88.1343,VALID,192.964,VALID,20.3464,VALID,102,VALID,0.0148437,
2014-09-22, 07:32:04,VALID,918.471,VALID,0,VALID,87.6845,VALID,199.088,VALID,20.3464,VALID,94,VALID,1.21016,
2014-09-22, 07:33:04,VALID,918.473,VALID,0,VALID,88.1114,VALID,203.386,VALID,20.3464,VALID,78,VALID,0.0191406,
2014-09-22, 07:34:04,VALID,918.497,VALID,0,VALID,88.1496,VALID,207.791,VALID,20.3643,VALID,102,VALID,0.0113281,
2014-09-22, 07:35:04,VALID,918.506,VALID,0,VALID,87.8522,VALID,212.089,VALID,20.4813,VALID,95,VALID,0.457031,
2014-09-22, 07:36:04,VALID,918.504,VALID,0,VALID,87.5626,VALID,217.998,VALID,20.5804,VALID,101,VALID,0.924609,
2014-09-22, 07:37:04,VALID,918.531,VALID,0,VALID,88.2868,VALID,217.676,VALID,20.6795,VALID,114,VALID,0,
2014-09-22, 07:38:04,VALID,918.546,VALID,0,VALID,88.0733,VALID,216.494,VALID,20.756,VALID,111,VALID,0,
2014-09-22, 07:39:04,VALID,918.539,VALID,0,VALID,86.4038,VALID,211.659,VALID,20.8145,VALID,131,VALID,0.25,
2014-09-22, 07:40:04,VALID,918.542,VALID,0,VALID,86.7926,VALID,210.907,VALID,20.8925,VALID,131,VALID,0,
2014-09-22, 07:41:04,VALID,918.559,VALID,0,VALID,86.5944,VALID,208.866,VALID,20.9511,VALID,151,VALID,0,
2014-09-22, 07:42:04,VALID,918.563,VALID,0,VALID,85.9845,VALID,209.295,VALID,20.9316,VALID,163,VALID,0,
2014-09-22, 07:43:04,VALID,918.546,VALID,0,VALID,85.6491,VALID,234.974,VALID,20.912,VALID,155,VALID,0,
2014-09-22, 07:44:04,VALID,918.561,VALID,0,VALID,86.5334,VALID,231.428,VALID,20.8925,VALID,146,VALID,0,
2014-09-22, 07:45:04,VALID,918.574,VALID,0,VALID,86.6172,VALID,234.866,VALID,20.9105,VALID,150,VALID,0,
2014-09-22, 07:46:04,VALID,918.588,VALID,0,VALID,85.3975,VALID,195.758,VALID,20.9706,VALID,143,VALID,1.01602,
2014-09-22, 07:47:04,VALID,918.606,VALID,0,VALID,85.2222,VALID,188.774,VALID,20.9901,VALID,140,VALID,0.365234,
2014-09-22, 07:48:04,VALID,918.643,VALID,0,VALID,85.8092,VALID,175.129,VALID,21.047,VALID,163,VALID,0,
2014-09-22, 07:49:04,VALID,918.671,VALID,0,VALID,83.7737,VALID,179.534,VALID,21.0681,VALID,170,VALID,0.933203,
2014-09-22, 07:50:04,VALID,918.699,VALID,0,VALID,84.4217,VALID,181.79,VALID,21.0275,VALID,167,VALID,1.64961,
2014-09-22, 07:51:04,VALID,918.715,VALID,0,VALID,85.1688,VALID,139.459,VALID,21.0275,VALID,154,VALID,0.0167969,
2014-09-22, 07:52:04,VALID,918.716,VALID,0,VALID,84.2692,VALID,115.714,VALID,20.9901,VALID,160,VALID,0.260156,
2014-09-22, 07:53:04,VALID,918.747,VALID,0,VALID,84.0329,VALID,114.532,VALID,20.891,VALID,155,VALID,1.00977,
2014-09-22, 07:54:04,VALID,918.762,VALID,0,VALID,83.6365,VALID,173.732,VALID,20.7934,VALID,160,VALID,1.13906,
2014-09-22, 07:55:04,VALID,918.82,VALID,0,VALID,83.7966,VALID,230.676,VALID,20.7739,VALID,156,VALID,1.53203,
2014-09-22, 07:56:04,VALID,918.774,VALID,0,VALID,84.7038,VALID,278.81,VALID,20.8145,VALID,150,VALID,1.40039,
2014-09-22, 07:57:04,VALID,918.826,VALID,0,VALID,84.4674,VALID,294.496,VALID,20.8714,VALID,142,VALID,1.40625,
2014-09-22, 07:58:04,VALID,918.814,VALID,0,VALID,83.4993,VALID,297.719,VALID,20.9495,VALID,151,VALID,1.16719,
2014-09-22, 07:59:04,VALID,918.805,VALID,0,VALID,84.0863,VALID,303.629,VALID,21.047,VALID,123,VALID,0.813672,
2014-09-22, 08:00:04,VALID,918.822,VALID,0,VALID,82.6607,VALID,308.893,VALID,21.125,VALID,141,VALID,1.6168,
2014-09-22, 08:01:04,VALID,918.823,VALID,0,VALID,83.7432,VALID,311.15,VALID,21.2421,VALID,155,VALID,0.0121094,
2014-09-22, 08:02:04,VALID,918.838,VALID,0,VALID,82.6988,VALID,311.794,VALID,21.299,VALID,118,VALID,2.20156,
2014-09-22, 08:03:04,VALID,918.854,VALID,0,VALID,83.2096,VALID,302.447,VALID,21.3591,VALID,148,VALID,1.32695,
2014-09-22, 08:04:04,VALID,918.879,VALID,0,VALID,83.5526,VALID,290.628,VALID,21.4177,VALID,152,VALID,0.984375,
2014-09-22, 08:05:04,VALID,918.907,VALID,0,VALID,81.967,VALID,308.464,VALID,21.4762,VALID,130,VALID,0.750781,
2014-09-22, 08:06:04,VALID,918.869,VALID,0,VALID,82.3481,VALID,319.1,VALID,21.5526,VALID,155,VALID,0.177344,
2014-09-22, 08:07:04,VALID,918.883,VALID,0,VALID,81.7611,VALID,334.035,VALID,21.6111,VALID,141,VALID,0,
2014-09-22, 08:08:04,VALID,918.855,VALID,0,VALID,80.6786,VALID,331.026,VALID,21.6306,VALID,170,VALID,1.83477,
2014-09-22, 08:09:04,VALID,918.854,VALID,0,VALID,80.4423,VALID,332.53,VALID,21.6323,VALID,162,VALID,0.329297,
2014-09-22, 08:10:04,VALID,918.821,VALID,0,VALID,81.8221,VALID,342.308,VALID,21.7282,VALID,139,VALID,0,
2014-09-22, 08:12:04,VALID,918.847,VALID,0,VALID,79.9925,VALID,351.655,VALID,21.9233,VALID,152,VALID,0.449219,
2014-09-22, 08:13:04,VALID,918.884,VALID,0,VALID,78.8871,VALID,354.986,VALID,21.9233,VALID,168,VALID,1.77383,
2014-09-22, 08:14:04,VALID,918.892,VALID,0,VALID,80.1069,VALID,359.283,VALID,21.9054,VALID,155,VALID,0.2375,
2014-09-22, 08:15:04,VALID,918.899,VALID,0,VALID,80.1221,VALID,358.961,VALID,21.9444,VALID,186,VALID,0.272266,
2014-09-22, 08:16:04,VALID,918.887,VALID,0,VALID,79.0243,VALID,356.812,VALID,22.0013,VALID,175,VALID,0.741016,
2014-09-22, 08:17:04,VALID,918.89,VALID,0,VALID,76.6382,VALID,356.06,VALID,22.0794,VALID,172,VALID,1.46484,
2014-09-22, 08:18:04,VALID,918.866,VALID,0,VALID,79.7943,VALID,360.465,VALID,22.1591,VALID,147,VALID,0,
2014-09-22, 08:19:04,VALID,918.853,VALID,0,VALID,79.6266,VALID,363.366,VALID,22.255,VALID,135,VALID,0,
2014-09-22, 08:20:04,VALID,918.875,VALID,0,VALID,79.7486,VALID,375.185,VALID,22.4306,VALID,160,VALID,0.00078125,
2014-09-22, 08:21:04,VALID,918.863,VALID,0,VALID,76.9889,VALID,387.863,VALID,22.5103,VALID,148,VALID,0.346484,
2014-09-22, 08:22:04,VALID,918.849,VALID,0,VALID,75.6929,VALID,386.036,VALID,22.4323,VALID,165,VALID,0.171094,
2014-09-22, 08:23:04,VALID,918.853,VALID,0,VALID,76.6687,VALID,392.697,VALID,22.372,VALID,136,VALID,0.48125,
2014-09-22, 08:24:04,VALID,918.836,VALID,0,VALID,77.6521,VALID,395.921,VALID,22.3525,VALID,162,VALID,1.10508,
2014-09-22, 08:25:04,VALID,918.854,VALID,0,VALID,77.149,VALID,401.722,VALID,22.3916,VALID,175,VALID,0,
2014-09-22, 08:26:04,VALID,918.833,VALID,0,VALID,78.2239,VALID,394.739,VALID,22.5884,VALID,163,VALID,0.00117188,
2014-09-22, 08:27:04,VALID,918.806,VALID,0,VALID,77.1718,VALID,381.416,VALID,22.7038,VALID,194,VALID,0.00351562,
2014-09-22, 08:28:04,VALID,918.851,VALID,0,VALID,75.4947,VALID,395.706,VALID,22.8209,VALID,154,VALID,0.0128906,
2014-09-22, 08:29:04,VALID,918.845,VALID,0,VALID,74.3512,VALID,396.995,VALID,22.8989,VALID,160,VALID,0,
2014-09-22, 08:30:04,VALID,918.861,VALID,0,VALID,74.9839,VALID,398.177,VALID,22.9753,VALID,174,VALID,0.00195313,
2014-09-22, 08:31:04,VALID,918.863,VALID,0,VALID,74.9763,VALID,351.01,VALID,23.1331,VALID,183,VALID,0,
2014-09-22, 08:32:04,VALID,918.883,VALID,0,VALID,74.3207,VALID,402.045,VALID,23.2698,VALID,176,VALID,0,
2014-09-22, 08:33:04,VALID,918.914,VALID,0,VALID,74.4045,VALID,431.054,VALID,23.3265,VALID,183,VALID,0.68125,
